Home   Weather   Dallas   Past weeks

Flag for USA Past Weather in Dallas, Texas, USA — Yesterday and Last 2 Weeks

Now
59 °F

Passing clouds.


Feels Like: 59 °F
Forecast: 58 / 87 °F
Wind: No wind

Location: Dallas Love Field

Current Time: Sep 28, 2016 at 5:21:11 AM

Latest Report: Sep 28, 2016 at 4:53 AM


Visibility: 10 mi

Pressure: 30.00 "Hg

Humidity: 81%

Dew Point: 53 °F

Location of DallasLocation

Past Weather in Dallas — Graph

°F

Dallas Temperature Yesterday

Maximum temperature yesterday: 78 °F (at 2:53 PM)
Minimum temperature yesterday: 63 °F (at 11:53 PM)
Average temperature yesterday: 71 °F

High & Low Weather Summary for the Past Weeks

 TemperatureHumidityPressure
High98 °F (Sep 18, 4:53 PM)93% (Sep 26, 4:57 AM)30.17 "Hg (Sep 26, 4:57 AM)
Low61 °F (Sep 28, 3:53 AM)31% (Sep 22, 2:53 PM)29.85 "Hg (Sep 16, 4:53 PM)
Average83 °F62%29.98 "Hg
* Reported Sep 13 3:53 AM — Sep 28 3:53 AM, Dallas, Weather by CustomWeather, © 2016

Note: Actual official high and low records may vary slightly from our data, if they occured in-between our weather recording intervals... More about our weather records

Advertising

Dallas Weather History for the Previous 24 Hours

Scroll right to see more
 ConditionsComfort  
Time TempWeatherWind HumidityBarometerVisibility
3:53 AM
Wed, Sep 28
61 °FPassing clouds.No wind75%30.00 "Hg10 mi
2:53 AM62 °FPassing clouds.No wind73%30.00 "Hg10 mi
1:53 AM62 °FPassing clouds.No wind75%30.01 "Hg10 mi
12:53 AM62 °FPassing clouds.No wind73%30.01 "Hg10 mi
11:53 PM
Tue, Sep 27
63 °FPassing clouds.No wind70%30.02 "Hg10 mi
10:53 PM66 °FPassing clouds.No wind63%30.02 "Hg10 mi
9:53 PM65 °FPassing clouds.No wind70%30.03 "Hg10 mi
8:53 PM65 °FPassing clouds.No wind73%30.01 "Hg10 mi
7:53 PM71 °FPassing clouds.No wind45%30.01 "Hg10 mi
6:53 PM74 °FScattered clouds.6 mph38%30.01 "Hg10 mi
5:53 PM76 °FPartly sunny.7 mph35%30.01 "Hg10 mi
4:53 PM76 °FPartly sunny.5 mph37%30.01 "Hg10 mi
3:53 PM77 °FPartly sunny.7 mph36%30.02 "Hg10 mi
2:53 PM78 °FBroken clouds.8 mph35%30.03 "Hg10 mi
1:53 PM77 °FBroken clouds.6 mph35%30.06 "Hg10 mi
12:53 PM76 °FBroken clouds.7 mph42%30.08 "Hg10 mi
11:53 AM75 °FBroken clouds.7 mph42%30.10 "Hg10 mi
10:53 AM73 °FPartly sunny.7 mph44%30.11 "Hg10 mi
9:53 AM71 °FBroken clouds.5 mph51%30.11 "Hg10 mi
8:53 AM68 °FBroken clouds.5 mph59%30.11 "Hg10 mi
7:53 AM66 °FPartly sunny.6 mph65%30.11 "Hg10 mi
6:53 AM68 °FPassing clouds.6 mph63%30.09 "Hg10 mi
5:53 AM68 °FPassing clouds.6 mph70%30.09 "Hg10 mi
Weather by CustomWeather, © 2016

See weather overviewHow to use our weather pages